Observer details:
033 Karl Schwarzschild Observatory, Tautenburg.  Observers U. Laux,
    B. Stecklum.  Measurer B. Stecklum.  1.34-m f/3 Schmidt + CCD.
104 San Marcello Pistoiese.  Observers P. Bacci, M. Maestripieri.  Measurers
    P. Bacci, L. Tesi, G. Fagioli.  0.60-m reflector + CCD.
203 GiaGa Observatory.  Observers S. Foglia, G. Galli.  Measurer G. Galli.
    0.36-m f/5.76 Schmidt-Cassegrain + CCD.
246 Klet Observatory-KLENOT.  Observers M. Tichy, J. Ticha.  1.06-m f/5.2
    reflector + 2048x2048 CCD.
291 LPL/Spacewatch II.  Observer R. A. Mastaler.  1.8-m f/2.7 reflector + CCD.
587 Sormano.  Observers M. Calcagno, A. Fumagalli, P. Sicoli, A. Testa.
    Measurer M. Calcagno.  0.5-m f/6.8 reflector + CCD.
595 Farra dIsonzo.  Observers S. Aschi, L. Bittesini, F. Bressan, G. Ierman,
    U. Montanar, E. Pettarin.  Measurer S. Aschi.  0.61-m f/4.5 reflector +
    CCD.
711 McDonald Observatory, Fort Davis.  Observer J. G. Ries.  2.1-m reflector
    + CCD + focal reducer.
A17 Guidestar Observatory, Weinheim.  Observers M. Emmerich, S. Melchert.
    0.36-m f/6 Schmidt-Cassegrain + CCD.
C95 SATINO Remote Observatory, Haute Provence.  Observer J. Jahn.  0.60-m
    f/3.2 Newtonian reflector + CCD.
F51 Pan-STARRS 1, Haleakala.  Observers J. Bulger, K. Chambers, T. Lowe,
    E. Magnier, A. Schultz, M. Willman.  Measurers S. Chastel, M. Huber,
    Y. Ramanjooloo, R. Wainscoat, R. Weryk, K. Chambers, T. de Boer,
    L. Denneau, J. Fairlamb, H. Flewelling, C.-C. Lin, E. Magnier.  1.8-m
    Ritchey-Chretien + CCD.
G96 Mt. Lemmon Survey.  Observer B. M. Africano.  Measurers B. M. Africano,
    E. J. Christensen, G. A. Farneth, D. C. Fuls, A. R. Gibbs, A. D. Grauer,
    H. Groeller, R. A. Kowalski, S. M. Larson, G. J. Leonard, T. A. Pruyne,
    R. L. Seaman, F. C. Shelly.  1.5-m reflector + 10K CCD.
I52 Steward Observatory, Mt. Lemmon Station.  Observer H. Groeller.
    Measurers B. M. Africano, E. J. Christensen, G. A. Farneth, D. C. Fuls,
    A. R. Gibbs, A. D. Grauer, H. Groeller, R. A. Kowalski, S. M. Larson,
    G. J. Leonard, T. A. Pruyne, R. L. Seaman, F. C. Shelly.  1.0-m reflector
    + CCD.
I93 St Pardon de Conques.  Observer F. Losse.  0.40-m f/3.7 reflector + CCD.
J95 Great Shefford.  Observer P. Birtwhistle.  0.41-m f/6.3
    Schmidt-Cassegrain + CCD.
K38 M57 Observatory, Saltrio.  Observer G. Baj.  0.3-m f/5.5 Ritchey-Chretien
    + CCD.
K63 G. Pascoli Observatory, Castelvecchio Pascoli.  Observer R. Bacci.
    0.41-m f/3.2 Newtonian reflector + CCD.
K87 Dettelbach Vineyard Observatory.  Observer B. Haeusler.  0.30-m
    Schmidt-Cassegrain + CCD.
L01 Visnjan Observatory, Tican.  Observers K. Korlevic, J. Mates.  Measurer
    K. Korlevic.  1.0-m f/2.9 reflector + CCD.
Z80 Northolt Branch Observatory.  Observer G. Wells.  Measurer D. Bamberger.
    0.25-m f/8.0 Ritchey-Chretien + CCD.
Z99 Clixby Observatory, Cleethorpes.  Observer A. Mickleburgh.  0.36-m f/8
    Schmidt-Cassegrain + CCD.
 
Orbital elements:
2019 FD1                                                 Earth MOID = 0.0522 AU
Epoch 2019 Apr. 27.0 TT = JDT 2458600.5                 MPC
M  26.36667              (2000.0)            P               Q
n   0.40180525     Peri.  312.11616     -0.79101518     -0.61118624
a   1.8188309      Node   190.31027     +0.59665494     -0.76079519
e   0.4634516      Incl.    8.78010     +0.13526963     -0.21827061
P   2.45           H   23.4           G   0.15           U   7
Residuals in seconds of arc
190328 F51  0.2-  0.1-    190329 711  0.0   0.1+    190329 K63 (1.0+  1.6-)
190328 F51  0.1+  0.0     190329 711  0.4+  0.2+    190329 J95  0.3-  0.1-
190328 F51  0.0   0.0     190329 G96  0.0   0.3+    190330 I52  0.6+  0.2+
190328 F51  0.3+  0.1+    190329 711  0.1-  0.3+    190330 I52  0.1-  0.2-
190328 J95  0.4-  0.3-    190329 I52  0.0   0.0     190330 711  0.4-  0.7+
190328 I93  0.5+  0.3-    190329 I52  0.2+  0.1-    190330 I52  0.3-  0.4-
190328 595  0.2+  0.3+    190329 I52  0.0   0.2+    190330 I52  0.5+  0.2-
190328 J95  0.1-  0.1-    190329 I52  0.2-  0.2-    190330 711  0.1-  0.3+
190328 595  0.6+  0.0     190329 I52  0.2+  0.2+    190330 711  0.2-  0.2+
190328 J95  0.0   0.1+    190329 I52  0.1+  0.0     190330 711  0.4-  0.1+
190328 I93  0.0   0.0     190329 I52  0.0   0.1-    190330 A17  0.5-  0.1+
190328 595  0.4-  0.6+    190329 I52  0.2+  0.0     190330 A17  0.2-  0.6-
190328 K38  0.7+  0.3-    190329 587  0.7-  0.6-    190330 A17  0.2+  0.4-
190328 I93  0.5+  0.1+    190329 587  0.8-  0.2-    190330 246  0.5+  0.3-
190328 L01  0.3-  0.1+    190329 587  1.0-  0.5-    190330 246  1.1+  0.8+
190328 L01  0.2-  0.2-    190329 K87  1.3+  0.5+    190330 246  0.1-  0.9+
190328 L01  0.0   0.4-    190329 K87 (1.5+  0.6+)   190330 246  1.1+  0.0
190328 L01  0.1-  0.1+    190329 K87 (1.7+  0.4+)   190330 246  0.2+  1.2+
190328 K38  0.4+  0.3+    190329 033  0.0   0.1-    190330 246  0.8-  0.3-
190328 Z99  0.5-  0.3+    190329 033  0.3+  0.1-    190330 K87  0.3+  0.7+
190328 Z99  0.7-  0.6+    190329 033  0.2+  0.1-    190330 K87  0.6+  0.5+
190328 Z99  0.1-  0.3+    190329 C95  0.6+  0.2-    190330 K87  0.2+  0.5+
190328 K38  0.7+  0.8-    190329 033  0.0   0.2-    190330 203  0.2-  0.4+
190328 104  1.4-  0.8+    190329 033  0.1+  0.1-    190330 203  0.5-  0.2-
190328 K38  0.2+  0.4+    190329 033  0.0   0.0     190330 203  0.4-  0.3+
190328 Z80  0.3+  0.2+    190329 C95  0.1+  0.7-    190331 I52  0.5-  0.2-
190328 104  1.4-  1.4+    190329 C95  0.3+  0.4-    190331 I52  0.2-  0.4-
190328 104 (1.6-  1.8+)   190329 C95  0.4+  0.7-    190331 I52  0.3+  0.1+
190328 Z80  0.1+  0.2+    190329 K63  1.1+  1.0-    190331 I52  0.4-  0.5-
190329 G96  0.1+  0.1-    190329 J95  0.2+  0.2+    190331 291  0.0   0.1+
190329 G96  0.0   0.1+    190329 K63  1.2+  0.5-    190331 291  0.2-  0.2-
190329 G96  0.4+  0.2-    190329 J95  0.2-  0.3-    190331 291  0.1-  0.1+

Ephemeris:
2019 FD1                 a,e,i = 1.82, 0.46, 9                   q = 0.9759
Date    TT    R. A. (2000) Decl.     Delta      r     Elong.  Phase     V
2019 03 02    04 27 13.2 -18 02 51   0.1396  0.9824    82.5    89.4    22.2
...
2019 03 17    06 43 15.5 -12 58 20   0.08311 1.0179   103.9    71.6    20.5
...
2019 03 25    08 55 23.2 -03 43 47   0.07588 1.0478   130.4    46.5    19.7
...
2019 03 31    10 26 28.8 +03 28 34   0.08892 1.0744   146.9    30.5    19.6
2019 04 01    10 38 53.0 +04 24 27   0.09242 1.0791   148.7    28.8    19.7
2019 04 02    10 50 26.8 +05 15 06   0.09622 1.0839   150.2    27.3    19.7
...
2019 04 08    11 44 18.3 +08 44 04   0.1241  1.1144   154.5    22.7    20.2
...
2019 04 16    12 27 28.9 +10 35 43   0.1708  1.1588   153.6    22.6    21.0
...
2019 05 01    13 08 54.6 +10 27 44   0.2771  1.2502   147.6    25.6    22.3

                       (Last issue was M.P.E.C. 2019-F159)

A. U. Tomatic                (C) Copyright 2019 MPC           M.P.E.C. 2019-G01



More information about the Iaude mailing list